#timestamp,LO_Frequency,Hit,StdDev 
1511442015.6,286047003.8,N
1511442035.4,286047004.4,N
1511442055.3,286047001.4,N
1511442075.1,286047001.3,N
1511442095.8,286047002.0,N
1511442115.7,286047002.7,N
1511442135.5,286047000.4,N
1511442155.4,286047002.5,N
1511442175.2,286047002.1,N
1511442195.0,286047002.3,N
1511442195.9,286047002.3,N
1511442215.8,286047000.8,N
1511442235.6,286047000.0,N
1511442255.4,286047002.7,N
1511442275.3,286047002.6,N
1511442295.1,286047002.7,N
1511442315.9,286047001.3,N
1511442335.7,286047004.1,N
1511442355.5,286047001.9,N
1511442375.4,286047002.4,N
1511442395.2,286047001.8,N
1511442415.1,286047001.5,N
1511442416.0,286047001.5,N
1511442435.8,286047002.4,N
1511442455.6,286047000.1,N
1511442475.5,286047003.7,N
1511442495.3,286047003.5,N
1511442515.1,286047002.7,N
1511442535.9,286047002.3,N
1511442555.7,286047002.0,N
1511442575.6,286047003.8,Y
1511442595.4,286047002.6,P
1511442615.2,286047001.8,P
1511442635.1,286047003.8,P
1511442636.0,286047003.8,Y
1511442655.8,286046998.5,P
1511442675.7,286047000.3,N
1511442695.5,286046998.7,N
1511442715.3,286046998.9,N
1511442735.2,286046996.6,N
1511442755.0,286046999.4,N
1511442755.9,286046999.4,N
1511442775.8,286047001.1,N
1511442795.6,286047000.7,N
1511442815.4,286047000.1,N
1511442835.3,286047000.5,N
1511442855.1,286046998.4,N
1511442875.8,286046997.4,N
1511442895.7,286046996.9,N
1511442915.5,286046999.3,N
1511442935.4,286046998.8,N
1511442955.2,286047000.7,N
1511442975.0,286046998.7,N
1511442975.9,286046998.7,N
1511442995.8,286046998.2,N
1511443015.6,286046999.2,N
1511443035.4,286046998.2,N
1511443055.3,286047002.3,N
1511443075.1,286046998.5,N
1511443095.9,286046999.6,N
1511443115.7,286046998.3,N
1511443135.5,286046998.9,N
1511443155.4,286046995.0,Y
1511443175.2,286047001.1,P
1511443195.0,286047000.6,N
1511443195.9,286047000.6,N
1511443215.8,286047000.3,N
1511443235.6,286047002.7,Y
1511443255.5,286047000.1,P
1511443275.3,286046999.8,N
1511443295.1,286046998.5,P
1511443315.9,286047001.2,N
1511443335.7,286047000.9,N
1511443355.6,286046998.5,N
1511443375.4,286047004.3,Y
1511443395.2,286047003.4,P
1511443415.1,286047003.5,N
1511443416.0,286047003.5,N
1511443435.8,286047005.9,Y
1511443455.6,286046999.8,P
1511443475.5,286046998.7,N
1511443495.3,286046999.5,N
1511443515.2,286047000.8,N
1511443535.9,286046999.1,N
1511443555.7,286046997.1,N
1511443575.6,286046996.8,N
1511443595.4,286046993.9,Y
1511443615.2,286046993.8,P
1511443635.1,286046996.1,N
1511443636.0,286046996.1,N
1511443655.8,286046995.5,N
1511443675.7,286046993.5,Y
1511443695.5,286046997.4,P
1511443715.3,286046997.2,P
1511443735.2,286046999.1,N
1511443755.0,286046998.9,N
1511443755.9,286046998.9,N
1511443775.8,286046995.3,Y
1511443795.6,286047000.5,P
1511443815.4,286046998.3,N
1511443835.3,286047002.4,N
1511443855.1,286046999.7,N
1511443875.9,286047002.0,N
1511443895.7,286047001.8,N
1511443915.5,286047004.1,N
1511443935.4,286047001.9,N
1511443955.2,286047002.5,N
1511443975.0,286047003.5,N
1511443975.9,286047003.5,N
1511443995.8,286047003.8,N
1511444015.6,286047004.4,N
1511444035.5,286047003.9,N
1511444055.3,286047000.5,N
1511444075.1,286047001.0,N
1511444095.9,286046998.3,N
1511444115.7,286047001.0,N
1511444135.5,286047000.4,N
1511444155.4,286046998.3,N
1511444175.2,286046996.5,N
1511444195.1,286046997.2,N
1511444196.0,286046997.2,N
1511444215.8,286046997.8,N
1511444235.6,286046997.1,N
1511444255.5,286046999.2,N
1511444275.3,286047001.2,N
1511444295.1,286047000.4,N
1511444315.9,286047001.0,N
1511444335.7,286047000.6,N
1511444355.6,286046998.2,N
1511444375.4,286047001.0,N
1511444395.2,286046998.7,N
1511444415.1,286046998.4,N
1511444416.0,286046998.4,N
1511444435.8,286046999.8,N
1511444455.6,286047001.5,N
1511444475.5,286047002.8,N
1511444495.3,286047001.9,N
1511444515.2,286047003.5,N
1511444535.9,286047004.1,N
1511444555.7,286047003.7,N
1511444575.6,286047001.6,N
1511444595.4,286047006.0,N
1511444615.2,286047006.0,N
1511444635.1,286047003.3,N
1511444636.0,286047003.3,N
1511444655.8,286047003.4,N
1511444675.7,286047002.9,N
1511444695.5,286047003.6,N
1511444715.3,286047003.9,N
1511444735.2,286047002.3,N
1511444755.0,286047002.4,N
1511444755.9,286047002.4,N
1511444775.8,286047002.2,N
1511444795.6,286047003.1,N
1511444815.4,286047003.7,N
1511444835.3,286047003.1,N
1511444855.1,286047004.7,N
1511444875.8,286047007.1,Y
1511444895.7,286047001.8,P
1511444915.5,286047001.9,P
1511444935.4,286047000.2,N
1511444955.2,286047002.6,Y
1511444975.0,286047000.7,P
1511444975.9,286047000.7,N
1511444995.8,286047000.2,N
1511445015.6,286047000.0,N
1511445035.5,286047000.0,N
1511445055.3,286046999.4,N
1511445075.1,286046998.7,N
1511445095.9,286047000.0,N
1511445115.7,286047003.6,Y
1511445135.5,286047003.7,P
1511445155.4,286047004.1,N
1511445175.2,286047003.9,N
1511445195.1,286047001.6,N
1511445196.0,286047001.6,N
1511445215.8,286047001.4,N
1511445235.6,286047004.0,N
1511445255.5,286047003.9,N
1511445275.3,286047002.1,N
1511445295.1,286047003.5,N
1511445315.9,286047001.3,N
1511445335.7,286047005.9,Y
1511445355.6,286047001.6,P
1511445375.4,286046999.9,N
1511445395.2,286047002.7,N
1511445415.1,286046999.0,N
1511445416.0,286046999.0,N
1511445435.8,286046998.4,N
1511445455.7,286046999.7,N
1511445475.5,286047001.4,N
1511445495.3,286047003.7,N
1511445515.2,286047003.8,N
1511445535.0,286047005.5,N
1511445535.9,286047005.5,N
1511445555.7,286047004.9,N
1511445575.6,286047006.8,N
1511445595.4,286047006.5,N
